Time,TemperatureF,DewpointF,PressureIn,WindDirection,WindDirectionDegrees,WindSpeedMPH,WindSpeedGustMPH,Humidity,HourlyPrecipIn,Conditions,Clouds,dailyrainin,SolarRadiationWatts/m^2,SoftwareType,DateUTC
2013-09-25 00:04:00,77.8,73.0,29.91,WSW,251,0.0,-999.0,85,-99.99,,,0.00,0,weatherlink.com 1.10,2013-09-25 04:04:00,
2013-09-25 00:19:00,77.7,73.0,29.91,WSW,251,0.0,-999.0,86,-99.99,,,0.00,0,weatherlink.com 1.10,2013-09-25 04:19:00,
2013-09-25 00:34:00,77.4,73.0,29.91,WSW,251,0.0,-999.0,86,-99.99,,,0.00,0,weatherlink.com 1.10,2013-09-25 04:34:00,
2013-09-25 00:49:00,77.2,72.0,29.89,WNW,288,0.0,-999.0,85,-99.99,,,0.00,0,weatherlink.com 1.10,2013-09-25 04:49:00,
2013-09-25 01:04:00,77.2,72.0,29.89,WNW,288,0.0,-999.0,84,-99.99,,,0.00,0,weatherlink.com 1.10,2013-09-25 05:04:00,
2013-09-25 01:19:00,77.1,72.0,29.88,WNW,288,0.0,-999.0,84,-99.99,,,0.00,0,weatherlink.com 1.10,2013-09-25 05:19:00,
2013-09-25 01:34:00,76.8,72.0,29.88,WNW,288,0.0,-999.0,84,-99.99,,,0.00,0,weatherlink.com 1.10,2013-09-25 05:34:00,
2013-09-25 01:49:00,76.5,72.0,29.87,WNW,288,0.0,-999.0,85,-99.99,,,0.00,0,weatherlink.com 1.10,2013-09-25 05:49:00,
2013-09-25 02:04:00,76.1,72.0,29.87,WNW,288,0.0,-999.0,86,-99.99,,,0.00,0,weatherlink.com 1.10,2013-09-25 06:04:00,
2013-09-25 02:19:00,75.7,72.0,29.86,WNW,288,0.0,-999.0,87,-99.99,,,0.00,0,weatherlink.com 1.10,2013-09-25 06:19:00,
2013-09-25 02:34:00,75.4,71.0,29.86,WNW,288,0.0,-999.0,87,-99.99,,,0.00,0,weatherlink.com 1.10,2013-09-25 06:34:00,
2013-09-25 02:49:00,75.3,72.0,29.85,WNW,288,0.0,-999.0,88,-99.99,,,0.00,0,weatherlink.com 1.10,2013-09-25 06:49:00,
2013-09-25 03:04:00,75.1,71.0,29.85,WNW,288,0.0,-999.0,88,-99.99,,,0.00,0,weatherlink.com 1.10,2013-09-25 07:04:00,
2013-09-25 03:19:00,74.9,72.0,29.85,WNW,288,0.0,-999.0,89,-99.99,,,0.00,0,weatherlink.com 1.10,2013-09-25 07:19:00,
2013-09-25 03:34:00,74.8,71.0,29.84,WNW,288,0.0,-999.0,89,-99.99,,,0.00,0,weatherlink.com 1.10,2013-09-25 07:34:00,
2013-09-25 03:49:00,74.7,71.0,29.84,WNW,288,0.0,-999.0,89,-99.99,,,0.00,0,weatherlink.com 1.10,2013-09-25 07:49:00,
2013-09-25 04:04:00,74.6,72.0,29.83,WNW,288,0.0,-999.0,90,-99.99,,,0.00,0,weatherlink.com 1.10,2013-09-25 08:04:00,
2013-09-25 04:19:00,74.7,72.0,29.83,WNW,288,0.0,-999.0,91,-99.99,,,0.00,0,weatherlink.com 1.10,2013-09-25 08:19:00,
2013-09-25 04:34:00,74.8,72.0,29.83,WNW,288,0.0,-999.0,91,-99.99,,,0.00,0,weatherlink.com 1.10,2013-09-25 08:34:00,
2013-09-25 04:49:00,74.8,72.0,29.83,WNW,288,0.0,-999.0,91,-99.99,,,0.00,0,weatherlink.com 1.10,2013-09-25 08:49:00,
2013-09-25 05:04:00,74.9,73.0,29.84,WNW,288,0.0,-999.0,92,-99.99,,,0.00,0,weatherlink.com 1.10,2013-09-25 09:04:00,
2013-09-25 05:19:00,75.1,73.0,29.84,WNW,288,0.0,-999.0,92,-99.99,,,0.00,0,weatherlink.com 1.10,2013-09-25 09:19:00,
2013-09-25 05:34:00,75.1,73.0,29.84,WNW,288,0.0,-999.0,93,-99.99,,,0.00,0,weatherlink.com 1.10,2013-09-25 09:34:00,
2013-09-25 05:49:00,75.1,73.0,29.84,WNW,288,0.0,-999.0,93,-99.99,,,0.00,0,weatherlink.com 1.10,2013-09-25 09:49:00,
2013-09-25 06:04:00,75.0,73.0,29.85,WNW,288,0.0,-999.0,93,-99.99,,,0.00,0,weatherlink.com 1.10,2013-09-25 10:04:00,
2013-09-25 06:19:00,74.9,73.0,29.85,WNW,288,0.0,-999.0,93,-99.99,,,0.00,0,weatherlink.com 1.10,2013-09-25 10:19:00,
2013-09-25 06:34:00,74.8,73.0,29.85,WNW,288,0.0,-999.0,93,-99.99,,,0.00,0,weatherlink.com 1.10,2013-09-25 10:34:00,
2013-09-25 06:49:00,74.7,73.0,29.86,WNW,288,0.0,-999.0,93,-99.99,,,0.00,0,weatherlink.com 1.10,2013-09-25 10:49:00,
2013-09-25 07:04:00,74.6,73.0,29.86,WNW,288,0.0,-999.0,93,-99.99,,,0.00,0,weatherlink.com 1.10,2013-09-25 11:04:00,
2013-09-25 07:19:00,74.5,72.0,29.86,WNW,288,0.0,-999.0,93,-99.99,,,0.00,11,weatherlink.com 1.10,2013-09-25 11:19:00,
2013-09-25 07:34:00,74.7,73.0,29.86,WNW,288,0.0,-999.0,93,-99.99,,,0.00,28,weatherlink.com 1.10,2013-09-25 11:34:00,
2013-09-25 07:49:00,75.3,74.0,29.87,WNW,288,0.0,-999.0,94,-99.99,,,0.00,54,weatherlink.com 1.10,2013-09-25 11:49:00,
2013-09-25 08:04:00,77.6,76.0,29.86,WNW,288,0.0,-999.0,94,-99.99,,,0.00,118,weatherlink.com 1.10,2013-09-25 12:04:00,
2013-09-25 08:19:00,79.0,77.0,29.87,WNW,288,0.0,-999.0,94,-99.99,,,0.00,178,weatherlink.com 1.10,2013-09-25 12:19:00,
2013-09-25 08:34:00,80.9,78.0,29.87,WNW,288,0.0,-999.0,91,-99.99,,,0.00,246,weatherlink.com 1.10,2013-09-25 12:34:00,
2013-09-25 08:50:00,81.9,79.0,29.87,West,275,0.0,-999.0,90,-99.99,,,0.00,302,weatherlink.com 1.10,2013-09-25 12:50:00,
2013-09-25 09:05:00,82.6,79.0,29.87,WSW,257,0.0,-999.0,88,-99.99,,,0.00,297,weatherlink.com 1.10,2013-09-25 13:05:00,
2013-09-25 09:20:00,82.8,78.0,29.87,WSW,252,0.0,-999.0,86,-99.99,,,0.00,281,weatherlink.com 1.10,2013-09-25 13:20:00,
2013-09-25 09:35:00,84.2,80.0,29.88,WSW,253,1.0,-999.0,86,-99.99,,,0.00,459,weatherlink.com 1.10,2013-09-25 13:35:00,
2013-09-25 09:50:00,84.7,79.0,29.88,SW,231,0.0,-999.0,83,-99.99,,,0.00,434,weatherlink.com 1.10,2013-09-25 13:50:00,
2013-09-25 10:05:00,85.3,79.0,29.89,WSW,243,0.0,-999.0,82,-99.99,,,0.00,483,weatherlink.com 1.10,2013-09-25 14:05:00,
2013-09-25 10:20:00,85.9,79.0,29.88,WSW,240,1.0,-999.0,79,-99.99,,,0.00,545,weatherlink.com 1.10,2013-09-25 14:20:00,
2013-09-25 10:35:00,86.3,79.0,29.89,WSW,244,1.0,-999.0,78,-99.99,,,0.00,592,weatherlink.com 1.10,2013-09-25 14:35:00,
2013-09-25 10:50:00,87.0,79.0,29.89,WSW,244,6.0,-999.0,76,-99.99,,,0.00,267,weatherlink.com 1.10,2013-09-25 14:50:00,
2013-09-25 11:05:00,86.3,78.0,29.89,WSW,242,2.0,-999.0,76,-99.99,,,0.00,211,weatherlink.com 1.10,2013-09-25 15:05:00,
2013-09-25 11:20:00,88.7,79.0,29.88,NW,305,3.0,-999.0,73,-99.99,,,0.00,879,weatherlink.com 1.10,2013-09-25 15:20:00,
2013-09-25 11:35:00,88.3,80.0,29.88,West,261,7.0,-999.0,75,-99.99,,,0.00,930,weatherlink.com 1.10,2013-09-25 15:35:00,
2013-09-25 11:50:00,88.5,80.0,29.87,WSW,255,3.0,-999.0,75,-99.99,,,0.00,904,weatherlink.com 1.10,2013-09-25 15:50:00,
2013-09-25 12:05:00,90.0,79.0,29.86,WSW,251,6.0,-999.0,71,-99.99,,,0.00,933,weatherlink.com 1.10,2013-09-25 16:05:00,
2013-09-25 12:20:00,89.6,78.0,29.86,West,262,0.0,-999.0,68,-99.99,,,0.00,301,weatherlink.com 1.10,2013-09-25 16:20:00,
2013-09-25 12:35:00,89.8,79.0,29.87,West,277,0.0,-999.0,70,-99.99,,,0.00,682,weatherlink.com 1.10,2013-09-25 16:35:00,
2013-09-25 12:50:00,79.7,73.0,29.89,West,260,4.0,-999.0,80,-99.99,,,0.28,49,weatherlink.com 1.10,2013-09-25 16:50:00,
2013-09-25 13:05:00,75.0,72.0,29.87,WNW,298,3.0,-999.0,89,-99.99,,,0.33,151,weatherlink.com 1.10,2013-09-25 17:05:00,
2013-09-25 13:20:00,75.8,73.0,29.85,WNW,283,0.0,-999.0,92,-99.99,,,0.33,128,weatherlink.com 1.10,2013-09-25 17:20:00,
2013-09-25 13:35:00,77.0,75.0,29.85,WNW,284,0.0,-999.0,94,-99.99,,,0.33,171,weatherlink.com 1.10,2013-09-25 17:35:00,
2013-09-25 13:50:00,77.7,76.0,29.85,West,278,0.0,-999.0,94,-99.99,,,0.33,202,weatherlink.com 1.10,2013-09-25 17:50:00,
2013-09-25 14:06:00,78.4,77.0,29.85,WNW,293,0.0,-999.0,95,-99.99,,,0.33,355,weatherlink.com 1.10,2013-09-25 18:06:00,
2013-09-25 14:20:00,79.0,78.0,29.84,West,274,3.0,-999.0,95,-99.99,,,0.33,434,weatherlink.com 1.10,2013-09-25 18:20:00,
2013-09-25 14:35:00,80.9,78.0,29.84,WNW,293,2.0,-999.0,92,-99.99,,,0.33,431,weatherlink.com 1.10,2013-09-25 18:35:00,
2013-09-25 14:50:00,83.9,79.0,29.83,West,278,0.0,-999.0,85,-99.99,,,0.33,817,weatherlink.com 1.10,2013-09-25 18:50:00,
2013-09-25 15:05:00,85.1,79.0,29.84,NW,310,4.0,-999.0,81,-99.99,,,0.33,763,weatherlink.com 1.10,2013-09-25 19:05:00,
2013-09-25 15:20:00,83.5,78.0,29.85,WNW,288,1.0,-999.0,82,-99.99,,,0.33,186,weatherlink.com 1.10,2013-09-25 19:20:00,
2013-09-25 15:35:00,82.7,77.0,29.85,WNW,298,0.0,-999.0,83,-99.99,,,0.33,62,weatherlink.com 1.10,2013-09-25 19:35:00,
2013-09-25 15:50:00,81.9,77.0,29.85,West,265,0.0,-999.0,84,-99.99,,,0.34,23,weatherlink.com 1.10,2013-09-25 19:50:00,
2013-09-25 16:05:00,81.0,77.0,29.85,West,265,0.0,-999.0,87,-99.99,,,0.35,18,weatherlink.com 1.10,2013-09-25 20:05:00,
2013-09-25 16:20:00,80.5,77.0,29.84,West,265,0.0,-999.0,89,-99.99,,,0.35,28,weatherlink.com 1.10,2013-09-25 20:20:00,
2013-09-25 16:35:00,80.1,77.0,29.84,West,265,0.0,-999.0,90,-99.99,,,0.35,77,weatherlink.com 1.10,2013-09-25 20:35:00,
2013-09-25 16:50:00,80.0,77.0,29.83,West,265,0.0,-999.0,91,-99.99,,,0.35,130,weatherlink.com 1.10,2013-09-25 20:50:00,
2013-09-25 17:05:00,80.0,77.0,29.83,West,265,0.0,-999.0,91,-99.99,,,0.35,74,weatherlink.com 1.10,2013-09-25 21:05:00,
2013-09-25 17:20:00,80.0,77.0,29.82,West,265,0.0,-999.0,91,-99.99,,,0.35,132,weatherlink.com 1.10,2013-09-25 21:20:00,
2013-09-25 17:35:00,80.5,78.0,29.81,West,265,0.0,-999.0,91,-99.99,,,0.35,192,weatherlink.com 1.10,2013-09-25 21:35:00,
2013-09-25 17:50:00,80.5,77.0,29.82,West,265,0.0,-999.0,89,-99.99,,,0.35,139,weatherlink.com 1.10,2013-09-25 21:50:00,
2013-09-25 18:05:00,80.3,77.0,29.82,West,265,0.0,-999.0,88,-99.99,,,0.35,137,weatherlink.com 1.10,2013-09-25 22:05:00,
2013-09-25 18:20:00,80.4,77.0,29.82,West,265,0.0,-999.0,88,-99.99,,,0.35,97,weatherlink.com 1.10,2013-09-25 22:20:00,
2013-09-25 18:35:00,80.0,76.0,29.82,West,265,0.0,-999.0,88,-99.99,,,0.35,60,weatherlink.com 1.10,2013-09-25 22:35:00,
2013-09-25 18:50:00,80.1,76.0,29.82,West,265,0.0,-999.0,88,-99.99,,,0.35,21,weatherlink.com 1.10,2013-09-25 22:50:00,
2013-09-25 19:06:00,79.9,76.0,29.82,West,265,0.0,-999.0,88,-99.99,,,0.35,7,weatherlink.com 1.10,2013-09-25 23:06:00,
2013-09-25 19:21:00,79.8,76.0,29.83,West,265,0.0,-999.0,88,-99.99,,,0.35,0,weatherlink.com 1.10,2013-09-25 23:21:00,
2013-09-25 19:36:00,79.7,76.0,29.84,West,265,0.0,-999.0,88,-99.99,,,0.35,0,weatherlink.com 1.10,2013-09-25 23:36:00,
2013-09-25 19:51:00,79.5,76.0,29.83,West,265,0.0,-999.0,88,-99.99,,,0.35,0,weatherlink.com 1.10,2013-09-25 23:51:00,
2013-09-25 20:06:00,79.3,76.0,29.83,West,265,0.0,-999.0,88,-99.99,,,0.35,0,weatherlink.com 1.10,2013-09-26 00:06:00,
2013-09-25 20:21:00,79.1,75.0,29.84,West,265,0.0,-999.0,88,-99.99,,,0.35,0,weatherlink.com 1.10,2013-09-26 00:21:00,
2013-09-25 20:36:00,78.8,75.0,29.84,West,265,0.0,-999.0,88,-99.99,,,0.35,0,weatherlink.com 1.10,2013-09-26 00:36:00,
2013-09-25 20:51:00,78.6,75.0,29.84,West,265,0.0,-999.0,89,-99.99,,,0.35,0,weatherlink.com 1.10,2013-09-26 00:51:00,
2013-09-25 21:06:00,78.3,75.0,29.84,West,265,0.0,-999.0,89,-99.99,,,0.35,0,weatherlink.com 1.10,2013-09-26 01:06:00,
2013-09-25 21:21:00,78.1,75.0,29.85,West,265,0.0,-999.0,89,-99.99,,,0.35,0,weatherlink.com 1.10,2013-09-26 01:21:00,
2013-09-25 21:36:00,78.0,75.0,29.85,West,265,0.0,-999.0,90,-99.99,,,0.35,0,weatherlink.com 1.10,2013-09-26 01:36:00,
2013-09-25 21:51:00,77.7,75.0,29.85,West,265,0.0,-999.0,90,-99.99,,,0.35,0,weatherlink.com 1.10,2013-09-26 01:51:00,
2013-09-25 22:06:00,77.5,75.0,29.85,West,265,0.0,-999.0,91,-99.99,,,0.35,0,weatherlink.com 1.10,2013-09-26 02:06:00,
2013-09-25 22:21:00,77.4,75.0,29.86,West,265,0.0,-999.0,91,-99.99,,,0.35,0,weatherlink.com 1.10,2013-09-26 02:21:00,
2013-09-25 22:36:00,77.1,74.0,29.86,West,265,0.0,-999.0,91,-99.99,,,0.35,0,weatherlink.com 1.10,2013-09-26 02:36:00,
2013-09-25 22:51:00,77.1,75.0,29.86,West,265,0.0,-999.0,92,-99.99,,,0.35,0,weatherlink.com 1.10,2013-09-26 02:51:00,
2013-09-25 23:06:00,76.9,75.0,29.85,West,265,0.0,-999.0,92,-99.99,,,0.35,0,weatherlink.com 1.10,2013-09-26 03:06:00,
2013-09-25 23:36:00,76.6,75.0,29.85,West,265,0.0,-999.0,93,-99.99,,,0.35,0,weatherlink.com 1.10,2013-09-26 03:36:00,
2013-09-25 23:51:00,76.4,74.0,29.85,West,265,0.0,-999.0,93,-99.99,,,0.35,0,weatherlink.com 1.10,2013-09-26 03:51:00,